User: anonymous   Login
Location: Theydon Bois
(51.6750°N, 0.1050°E)
Time: 04:31:39
(UTC+00:00)
Language:

YAOGAN 6 - Orbit

View from above orbital plane
View from above orbital plane
View from above satellite
View from above satellite

Ground track
Ground track

The orbit data is extracted from the following two-line orbital elements,

1 34839U 09021A   17347.83060563  .00000620  00000-0  26524-4 0  9993
2 34839  97.1208  30.1778 0029829  45.7944 314.5738 15.25974749479986
Epoch (UTC): 13 December 2017 19:56:04
Eccentricity: 0.0029829
inclination: 97.1208°
perigee height: 467 km
apogee height: 508 km
right ascension of ascending node: 30.1778°
argument of perigee: 45.7944°
revolutions per day: 15.25974749
mean anomaly at epoch: 314.5738°
orbit number at epoch: 47998

The dashed part of the orbit path shows where the satellite is in the earth's shadow,  

DLR